Time,TemperatureF,DewpointF,PressureIn,WindDirection,WindDirectionDegrees,WindSpeedMPH,WindSpeedGustMPH,Humidity,HourlyPrecipIn,Conditions,Clouds,dailyrainin,SoftwareType,DateUTC
2013-01-09 00:00:00,10.1,6.0,30.69,ESE,123,0.0,1.0,83,0.00,,,0.00,Wunderground v.1.15,2013-01-09 07:00:00,
2013-01-09 00:05:00,9.9,5.2,30.69,ESE,123,0.0,1.0,81,0.00,,,0.00,Wunderground v.1.15,2013-01-09 07:05:00,
2013-01-09 00:10:00,9.9,5.5,30.69,ESE,123,0.0,1.0,82,0.00,,,0.00,Wunderground v.1.15,2013-01-09 07:10:00,
2013-01-09 00:15:00,9.9,5.8,30.69,ESE,123,0.0,2.0,83,0.00,,,0.00,Wunderground v.1.15,2013-01-09 07:15:00,
2013-01-09 00:25:00,9.9,6.3,30.69,ESE,123,0.0,2.0,85,0.00,,,0.00,Wunderground v.1.15,2013-01-09 07:25:00,
2013-01-09 00:35:00,9.7,5.0,30.69,ESE,123,0.0,2.0,81,0.00,,,0.00,Wunderground v.1.15,2013-01-09 07:35:00,
2013-01-09 00:40:00,9.6,5.5,30.70,ESE,123,0.0,2.0,83,0.00,,,0.00,Wunderground v.1.15,2013-01-09 07:40:00,
2013-01-09 00:50:00,9.2,5.3,30.70,ESE,123,0.0,2.0,84,0.00,,,0.00,Wunderground v.1.15,2013-01-09 07:50:00,
2013-01-09 00:55:00,9.2,5.3,30.70,ESE,123,0.0,2.0,84,0.00,,,0.00,Wunderground v.1.15,2013-01-09 07:55:00,
2013-01-09 01:00:00,9.4,5.8,30.71,ESE,123,0.0,2.0,85,0.00,,,0.00,Wunderground v.1.15,2013-01-09 08:00:00,
2013-01-09 01:05:00,9.4,5.3,30.70,ESE,123,0.0,2.0,83,0.00,,,0.00,Wunderground v.1.15,2013-01-09 08:05:00,
2013-01-09 01:15:00,9.2,5.3,30.70,ESE,123,0.0,2.0,84,0.00,,,0.00,Wunderground v.1.15,2013-01-09 08:15:00,
2013-01-09 01:25:00,8.8,4.4,30.69,ESE,123,0.0,0.0,82,0.00,,,0.00,Wunderground v.1.15,2013-01-09 08:25:00,
2013-01-09 01:30:00,8.7,4.6,30.69,ESE,123,0.0,0.0,83,0.00,,,0.00,Wunderground v.1.15,2013-01-09 08:30:00,
2013-01-09 01:35:00,8.7,4.9,30.69,ESE,123,0.0,0.0,84,0.00,,,0.00,Wunderground v.1.15,2013-01-09 08:35:00,
2013-01-09 01:40:00,8.9,5.1,30.69,ESE,123,0.0,0.0,84,0.00,,,0.00,Wunderground v.1.15,2013-01-09 08:40:00,
2013-01-09 01:45:00,9.0,5.1,30.69,ESE,123,0.0,0.0,84,0.00,,,0.00,Wunderground v.1.15,2013-01-09 08:45:00,
2013-01-09 01:55:00,9.0,4.9,30.68,ESE,123,0.0,0.0,83,0.00,,,0.00,Wunderground v.1.15,2013-01-09 08:55:00,
2013-01-09 02:00:00,8.9,4.5,30.68,ESE,123,0.0,0.0,82,0.00,,,0.00,Wunderground v.1.15,2013-01-09 09:00:00,
2013-01-09 02:05:00,9.0,5.1,30.68,ESE,123,0.0,0.0,84,0.00,,,0.00,Wunderground v.1.15,2013-01-09 09:05:00,
2013-01-09 02:10:00,8.9,5.1,30.68,ESE,123,0.0,0.0,84,0.00,,,0.00,Wunderground v.1.15,2013-01-09 09:10:00,
2013-01-09 02:15:00,8.9,5.1,30.69,ESE,123,0.0,0.0,84,0.00,,,0.00,Wunderground v.1.15,2013-01-09 09:15:00,
2013-01-09 02:25:00,8.2,3.6,30.69,ESE,123,0.0,0.0,81,0.00,,,0.00,Wunderground v.1.15,2013-01-09 09:25:00,
2013-01-09 02:30:00,8.0,3.6,30.69,ESE,123,0.0,0.0,82,0.00,,,0.00,Wunderground v.1.15,2013-01-09 09:30:00,
2013-01-09 02:35:00,8.0,3.9,30.69,ESE,123,0.0,0.0,83,0.00,,,0.00,Wunderground v.1.15,2013-01-09 09:35:00,
2013-01-09 02:40:00,7.8,3.4,30.69,ESE,123,0.0,1.0,82,0.00,,,0.00,Wunderground v.1.15,2013-01-09 09:40:00,
2013-01-09 02:45:00,7.8,3.7,30.69,ESE,123,0.0,1.0,83,0.00,,,0.00,Wunderground v.1.15,2013-01-09 09:45:00,
2013-01-09 02:55:00,8.1,4.8,30.69,ESE,123,0.0,0.0,86,0.00,,,0.00,Wunderground v.1.15,2013-01-09 09:55:00,
2013-01-09 03:00:00,8.3,4.5,30.69,ESE,123,0.0,0.0,84,0.00,,,0.00,Wunderground v.1.15,2013-01-09 10:00:00,
2013-01-09 03:05:00,8.3,4.2,30.69,ESE,123,0.0,0.0,83,0.00,,,0.00,Wunderground v.1.15,2013-01-09 10:05:00,
2013-01-09 03:10:00,8.2,4.1,30.69,ESE,123,0.0,0.0,83,0.00,,,0.00,Wunderground v.1.15,2013-01-09 10:10:00,
2013-01-09 03:15:00,7.9,3.3,30.69,ESE,123,0.0,1.0,81,0.00,,,0.00,Wunderground v.1.15,2013-01-09 10:15:00,
2013-01-09 03:25:00,7.5,3.9,30.69,ESE,123,0.0,0.0,85,0.00,,,0.00,Wunderground v.1.15,2013-01-09 10:25:00,
2013-01-09 03:30:00,7.7,4.1,30.69,ESE,123,0.0,0.0,85,0.00,,,0.00,Wunderground v.1.15,2013-01-09 10:30:00,
2013-01-09 03:35:00,7.8,4.2,30.68,ESE,123,0.0,0.0,85,0.00,,,0.00,Wunderground v.1.15,2013-01-09 10:35:00,
2013-01-09 03:40:00,7.7,3.9,30.68,ESE,123,0.0,0.0,84,0.00,,,0.00,Wunderground v.1.15,2013-01-09 10:40:00,
2013-01-09 03:45:00,7.6,3.8,30.68,ESE,123,0.0,0.0,84,0.00,,,0.00,Wunderground v.1.15,2013-01-09 10:45:00,
2013-01-09 03:50:00,7.6,3.5,30.68,ESE,123,0.0,0.0,83,0.00,,,0.00,Wunderground v.1.15,2013-01-09 10:50:00,
2013-01-09 04:00:00,7.2,3.4,30.69,ESE,123,0.0,0.0,84,0.00,,,0.00,Wunderground v.1.15,2013-01-09 11:00:00,
2013-01-09 04:05:00,7.3,3.5,30.69,ESE,123,0.0,1.0,84,0.00,,,0.00,Wunderground v.1.15,2013-01-09 11:05:00,
2013-01-09 04:10:00,7.4,3.8,30.68,ESE,123,0.0,0.0,85,0.00,,,0.00,Wunderground v.1.15,2013-01-09 11:10:00,
2013-01-09 04:15:00,7.2,3.1,30.68,ESE,123,0.0,1.0,83,0.00,,,0.00,Wunderground v.1.15,2013-01-09 11:15:00,
2013-01-09 04:25:00,7.1,3.5,30.68,ESE,123,0.0,1.0,85,0.00,,,0.00,Wunderground v.1.15,2013-01-09 11:25:00,
2013-01-09 04:30:00,7.2,3.4,30.68,ESE,123,0.0,1.0,84,0.00,,,0.00,Wunderground v.1.15,2013-01-09 11:30:00,
2013-01-09 04:35:00,7.2,3.6,30.68,ESE,123,0.0,1.0,85,0.00,,,0.00,Wunderground v.1.15,2013-01-09 11:35:00,
2013-01-09 04:40:00,7.4,3.8,30.68,ESE,123,0.0,1.0,85,0.00,,,0.00,Wunderground v.1.15,2013-01-09 11:40:00,
2013-01-09 04:45:00,7.5,3.7,30.69,ESE,123,0.0,1.0,84,0.00,,,0.00,Wunderground v.1.15,2013-01-09 11:45:00,
2013-01-09 04:50:00,7.4,3.3,30.69,ESE,123,0.0,1.0,83,0.00,,,0.00,Wunderground v.1.15,2013-01-09 11:50:00,
2013-01-09 05:00:00,7.1,3.0,30.69,ESE,123,0.0,1.0,83,0.00,,,0.00,Wunderground v.1.15,2013-01-09 12:00:00,
2013-01-09 05:05:00,7.1,3.0,30.70,ESE,123,0.0,1.0,83,0.00,,,0.00,Wunderground v.1.15,2013-01-09 12:05:00,
2013-01-09 05:10:00,7.0,2.9,30.70,ESE,123,0.0,1.0,83,0.00,,,0.00,Wunderground v.1.15,2013-01-09 12:10:00,
2013-01-09 05:15:00,6.9,3.1,30.69,ESE,123,0.0,1.0,84,0.00,,,0.00,Wunderground v.1.15,2013-01-09 12:15:00,
2013-01-09 05:25:00,6.8,3.0,30.70,ESE,123,0.0,1.0,84,0.00,,,0.00,Wunderground v.1.15,2013-01-09 12:25:00,
2013-01-09 05:30:00,7.0,3.4,30.69,ESE,123,0.0,1.0,85,0.00,,,0.00,Wunderground v.1.15,2013-01-09 12:30:00,
2013-01-09 05:35:00,6.9,3.1,30.69,ESE,123,0.0,1.0,84,0.00,,,0.00,Wunderground v.1.15,2013-01-09 12:35:00,
2013-01-09 05:40:00,6.9,3.1,30.70,ESE,123,0.0,1.0,84,0.00,,,0.00,Wunderground v.1.15,2013-01-09 12:40:00,
2013-01-09 05:45:00,6.7,2.6,30.69,ESE,123,0.0,1.0,83,0.00,,,0.00,Wunderground v.1.15,2013-01-09 12:45:00,
2013-01-09 05:50:00,6.4,2.1,30.70,ESE,123,0.0,1.0,82,0.00,,,0.00,Wunderground v.1.15,2013-01-09 12:50:00,
2013-01-09 05:55:00,6.4,2.3,30.70,ESE,123,0.0,1.0,83,0.00,,,0.00,Wunderground v.1.15,2013-01-09 12:55:00,
2013-01-09 06:05:00,6.8,3.2,30.70,ESE,123,0.0,1.0,85,0.00,,,0.00,Wunderground v.1.15,2013-01-09 13:05:00,
2013-01-09 06:10:00,6.7,2.6,30.70,ESE,123,0.0,1.0,83,0.00,,,0.00,Wunderground v.1.15,2013-01-09 13:10:00,
2013-01-09 06:15:00,6.5,2.4,30.70,ESE,123,0.0,1.0,83,0.00,,,0.00,Wunderground v.1.15,2013-01-09 13:15:00,
2013-01-09 06:25:00,6.5,2.7,30.70,ESE,123,0.0,0.0,84,0.00,,,0.00,Wunderground v.1.15,2013-01-09 13:25:00,
2013-01-09 06:35:00,6.7,3.1,30.71,ESE,123,0.0,0.0,85,0.00,,,0.00,Wunderground v.1.15,2013-01-09 13:35:00,
2013-01-09 06:40:00,6.5,2.4,30.71,ESE,123,0.0,0.0,83,0.00,,,0.00,Wunderground v.1.15,2013-01-09 13:40:00,
2013-01-09 06:45:00,6.4,2.3,30.72,ESE,123,0.0,0.0,83,0.00,,,0.00,Wunderground v.1.15,2013-01-09 13:45:00,
2013-01-09 06:50:00,6.3,2.2,30.72,ESE,123,0.0,0.0,83,0.00,,,0.00,Wunderground v.1.15,2013-01-09 13:50:00,
2013-01-09 06:55:00,6.3,2.2,30.73,ESE,123,0.0,0.0,83,0.00,,,0.00,Wunderground v.1.15,2013-01-09 13:55:00,
2013-01-09 07:05:00,6.4,2.6,30.73,ESE,123,0.0,0.0,84,0.00,,,0.00,Wunderground v.1.15,2013-01-09 14:05:00,
2013-01-09 07:10:00,6.3,2.2,30.74,ESE,123,0.0,0.0,83,0.00,,,0.00,Wunderground v.1.15,2013-01-09 14:10:00,
2013-01-09 07:15:00,5.9,1.3,30.75,ESE,123,0.0,1.0,81,0.00,,,0.00,Wunderground v.1.15,2013-01-09 14:15:00,
2013-01-09 07:25:00,6.1,2.6,30.75,ESE,123,0.0,1.0,85,0.00,,,0.00,Wunderground v.1.15,2013-01-09 14:25:00,
2013-01-09 07:30:00,6.2,2.4,30.76,ESE,123,0.0,1.0,84,0.00,,,0.00,Wunderground v.1.15,2013-01-09 14:30:00,
2013-01-09 07:35:00,6.2,2.1,30.77,ESE,123,0.0,1.0,83,0.00,,,0.00,Wunderground v.1.15,2013-01-09 14:35:00,
2013-01-09 07:40:00,6.1,2.3,30.77,ESE,123,0.0,1.0,84,0.00,,,0.00,Wunderground v.1.15,2013-01-09 14:40:00,
2013-01-09 07:50:00,6.1,1.8,30.78,ESE,123,0.0,1.0,82,0.00,,,0.00,Wunderground v.1.15,2013-01-09 14:50:00,
2013-01-09 07:55:00,5.8,1.2,30.78,ESE,123,0.0,1.0,81,0.00,,,0.00,Wunderground v.1.15,2013-01-09 14:55:00,
2013-01-09 08:00:00,5.7,1.7,30.79,ESE,123,0.0,1.0,83,0.00,,,0.00,Wunderground v.1.15,2013-01-09 15:00:00,
2013-01-09 08:10:00,6.0,2.7,30.80,ESE,123,0.0,1.0,86,0.00,,,0.00,Wunderground v.1.15,2013-01-09 15:10:00,
2013-01-09 08:15:00,5.9,1.6,30.82,ESE,123,0.0,1.0,82,0.00,,,0.00,Wunderground v.1.15,2013-01-09 15:15:00,
2013-01-09 08:25:00,6.3,3.0,30.83,ESE,123,0.0,0.0,86,0.00,,,0.00,Wunderground v.1.15,2013-01-09 15:25:00,
2013-01-09 08:30:00,6.5,3.0,30.83,ESE,123,0.0,0.0,85,0.00,,,0.00,Wunderground v.1.15,2013-01-09 15:30:00,
2013-01-09 08:35:00,6.5,2.7,30.83,ESE,123,0.0,0.0,84,0.00,,,0.00,Wunderground v.1.15,2013-01-09 15:35:00,
2013-01-09 08:40:00,6.7,3.1,30.83,ESE,123,0.0,0.0,85,0.00,,,0.00,Wunderground v.1.15,2013-01-09 15:40:00,
2013-01-09 08:45:00,7.2,4.1,30.83,ESE,123,0.0,0.0,87,0.00,,,0.00,Wunderground v.1.15,2013-01-09 15:45:00,
2013-01-09 08:50:00,7.9,5.1,30.83,ESE,123,0.0,0.0,88,0.00,,,0.00,Wunderground v.1.15,2013-01-09 15:50:00,
2013-01-09 08:55:00,8.7,6.1,30.83,ESE,123,0.0,0.0,89,0.00,,,0.00,Wunderground v.1.15,2013-01-09 15:55:00,
2013-01-09 09:00:00,9.6,7.0,30.82,ESE,123,0.0,0.0,89,0.00,,,0.00,Wunderground v.1.15,2013-01-09 16:00:00,
2013-01-09 09:10:00,11.6,9.0,30.82,ESE,123,0.0,1.0,89,0.00,,,0.00,Wunderground v.1.15,2013-01-09 16:10:00,
2013-01-09 09:15:00,12.6,9.7,30.83,ESE,123,1.0,1.0,88,0.00,,,0.00,Wunderground v.1.15,2013-01-09 16:15:00,
2013-01-09 09:25:00,14.0,10.8,30.84,ESE,123,0.0,1.0,87,0.00,,,0.00,Wunderground v.1.15,2013-01-09 16:25:00,
2013-01-09 09:30:00,15.2,11.8,30.84,ESE,123,0.0,0.0,86,0.00,,,0.00,Wunderground v.1.15,2013-01-09 16:30:00,
2013-01-09 09:35:00,16.8,13.3,30.84,ESE,123,0.0,0.0,86,0.00,,,0.00,Wunderground v.1.15,2013-01-09 16:35:00,
2013-01-09 09:45:00,18.4,13.3,30.84,ESE,123,0.0,0.0,80,0.00,,,0.00,Wunderground v.1.15,2013-01-09 16:45:00,
2013-01-09 09:50:00,19.3,13.9,30.83,South,182,0.0,0.0,79,0.00,,,0.00,Wunderground v.1.15,2013-01-09 16:50:00,
2013-01-09 09:55:00,20.4,14.3,30.83,South,182,0.0,1.0,77,0.00,,,0.00,Wunderground v.1.15,2013-01-09 16:55:00,
2013-01-09 10:00:00,21.6,14.6,30.83,South,182,1.0,1.0,74,0.00,,,0.00,Wunderground v.1.15,2013-01-09 17:00:00,
2013-01-09 10:05:00,22.6,14.3,30.83,South,182,0.0,1.0,70,0.00,,,0.00,Wunderground v.1.15,2013-01-09 17:05:00,
2013-01-09 10:10:00,23.4,14.4,30.83,South,182,0.0,0.0,68,0.00,,,0.00,Wunderground v.1.15,2013-01-09 17:10:00,
2013-01-09 10:15:00,24.0,13.2,30.83,South,182,0.0,2.0,63,0.00,,,0.00,Wunderground v.1.15,2013-01-09 17:15:00,
2013-01-09 10:25:00,25.4,14.9,30.83,South,182,0.0,2.0,64,0.00,,,0.00,Wunderground v.1.15,2013-01-09 17:25:00,
2013-01-09 10:30:00,26.0,14.4,30.82,South,182,0.0,2.0,61,0.00,,,0.00,Wunderground v.1.15,2013-01-09 17:30:00,
2013-01-09 10:35:00,26.7,15.8,30.82,South,182,0.0,2.0,63,0.00,,,0.00,Wunderground v.1.15,2013-01-09 17:35:00,
2013-01-09 10:45:00,28.3,15.0,30.81,South,182,1.0,2.0,57,0.00,,,0.00,Wunderground v.1.15,2013-01-09 17:45:00,
2013-01-09 10:50:00,29.0,14.4,30.81,South,182,0.0,2.0,54,0.00,,,0.00,Wunderground v.1.15,2013-01-09 17:50:00,
2013-01-09 10:55:00,29.5,14.0,30.80,South,182,0.0,2.0,52,0.00,,,0.00,Wunderground v.1.15,2013-01-09 17:55:00,
2013-01-09 11:00:00,30.3,14.3,30.79,South,182,0.0,2.0,51,0.00,,,0.00,Wunderground v.1.15,2013-01-09 18:00:00,
2013-01-09 11:05:00,31.0,13.6,30.79,South,182,0.0,2.0,48,0.00,,,0.00,Wunderground v.1.15,2013-01-09 18:05:00,
2013-01-09 11:10:00,31.6,13.7,30.78,South,182,0.0,2.0,47,0.00,,,0.00,Wunderground v.1.15,2013-01-09 18:10:00,
2013-01-09 11:15:00,32.2,13.7,30.77,South,182,0.0,2.0,46,0.00,,,0.00,Wunderground v.1.15,2013-01-09 18:15:00,
2013-01-09 11:25:00,33.8,15.7,30.76,South,179,1.0,1.0,47,0.00,,,0.00,Wunderground v.1.15,2013-01-09 18:25:00,
2013-01-09 11:30:00,34.4,14.7,30.75,South,179,0.0,1.0,44,0.00,,,0.00,Wunderground v.1.15,2013-01-09 18:30:00,
2013-01-09 11:35:00,34.9,14.6,30.75,South,179,0.0,1.0,43,0.00,,,0.00,Wunderground v.1.15,2013-01-09 18:35:00,
2013-01-09 11:40:00,35.2,14.4,30.74,South,179,0.0,1.0,42,0.00,,,0.00,Wunderground v.1.15,2013-01-09 18:40:00,
2013-01-09 11:45:00,35.4,14.6,30.73,South,179,0.0,1.0,42,0.00,,,0.00,Wunderground v.1.15,2013-01-09 18:45:00,
2013-01-09 11:50:00,35.4,12.9,30.73,South,179,1.0,1.0,39,0.00,,,0.00,Wunderground v.1.15,2013-01-09 18:50:00,
2013-01-09 11:55:00,35.4,13.4,30.72,South,179,1.0,1.0,40,0.00,,,0.00,Wunderground v.1.15,2013-01-09 18:55:00,
2013-01-09 12:00:00,35.5,13.5,30.72,SSW,198,1.0,2.0,40,0.00,,,0.00,Wunderground v.1.15,2013-01-09 19:00:00,
2013-01-09 12:05:00,35.7,13.1,30.72,SSE,167,1.0,2.0,39,0.00,,,0.00,Wunderground v.1.15,2013-01-09 19:05:00,
2013-01-09 12:10:00,36.0,12.2,30.71,SSE,167,1.0,1.0,37,0.00,,,0.00,Wunderground v.1.15,2013-01-09 19:10:00,
2013-01-09 12:15:00,36.4,12.6,30.70,SSE,167,0.0,5.0,37,0.00,,,0.00,Wunderground v.1.15,2013-01-09 19:15:00,
2013-01-09 12:25:00,37.7,15.5,30.69,South,182,0.0,5.0,40,0.00,,,0.00,Wunderground v.1.15,2013-01-09 19:25:00,
2013-01-09 12:30:00,38.0,15.2,30.69,South,182,1.0,5.0,39,0.00,,,0.00,Wunderground v.1.15,2013-01-09 19:30:00,
2013-01-09 12:35:00,38.7,14.0,30.68,South,182,1.0,5.0,36,0.00,,,0.00,Wunderground v.1.15,2013-01-09 19:35:00,
2013-01-09 12:40:00,38.9,16.6,30.68,South,182,1.0,5.0,40,0.00,,,0.00,Wunderground v.1.15,2013-01-09 19:40:00,
2013-01-09 12:50:00,39.4,15.9,30.68,South,182,0.0,5.0,38,0.00,,,0.00,Wunderground v.1.15,2013-01-09 19:50:00,
2013-01-09 12:55:00,40.0,18.2,30.67,South,182,0.0,5.0,41,0.00,,,0.00,Wunderground v.1.15,2013-01-09 19:55:00,
2013-01-09 13:00:00,40.1,17.1,30.66,South,182,0.0,5.0,39,0.00,,,0.00,Wunderground v.1.15,2013-01-09 20:00:00,
2013-01-09 13:05:00,40.2,19.5,30.66,South,182,0.0,5.0,43,0.00,,,0.00,Wunderground v.1.15,2013-01-09 20:05:00,
2013-01-09 13:10:00,40.2,19.5,30.66,South,182,0.0,5.0,43,0.00,,,0.00,Wunderground v.1.15,2013-01-09 20:10:00,
2013-01-09 13:15:00,40.2,18.3,30.66,South,182,0.0,5.0,41,0.00,,,0.00,Wunderground v.1.15,2013-01-09 20:15:00,
2013-01-09 13:25:00,40.9,18.4,30.66,South,182,0.0,2.0,40,0.00,,,0.00,Wunderground v.1.15,2013-01-09 20:25:00,
2013-01-09 13:30:00,41.1,19.2,30.66,South,182,0.0,2.0,41,0.00,,,0.00,Wunderground v.1.15,2013-01-09 20:30:00,
2013-01-09 13:35:00,41.3,20.5,30.65,South,182,0.0,2.0,43,0.00,,,0.00,Wunderground v.1.15,2013-01-09 20:35:00,
2013-01-09 13:45:00,41.4,17.0,30.65,ESE,115,0.0,2.0,37,0.00,,,0.00,Wunderground v.1.15,2013-01-09 20:45:00,
2013-01-09 13:55:00,40.9,17.8,30.65,ESE,106,2.0,2.0,39,0.00,,,0.00,Wunderground v.1.15,2013-01-09 20:55:00,
2013-01-09 14:00:00,40.6,17.5,30.64,ESE,103,1.0,2.0,39,0.00,,,0.00,Wunderground v.1.15,2013-01-09 21:00:00,
2013-01-09 14:05:00,40.4,17.4,30.64,ESE,103,1.0,2.0,39,0.00,,,0.00,Wunderground v.1.15,2013-01-09 21:05:00,
2013-01-09 14:10:00,40.5,16.2,30.64,South,181,1.0,1.0,37,0.00,,,0.00,Wunderground v.1.15,2013-01-09 21:10:00,
2013-01-09 14:15:00,40.9,17.2,30.64,SSW,202,1.0,3.0,38,0.00,,,0.00,Wunderground v.1.15,2013-01-09 21:15:00,
2013-01-09 14:25:00,41.1,18.0,30.63,SW,224,0.0,2.0,39,0.00,,,0.00,Wunderground v.1.15,2013-01-09 21:25:00,
2013-01-09 14:30:00,41.1,17.4,30.63,South,181,0.0,3.0,38,0.00,,,0.00,Wunderground v.1.15,2013-01-09 21:30:00,
2013-01-09 14:35:00,41.1,17.4,30.63,South,181,0.0,3.0,38,0.00,,,0.00,Wunderground v.1.15,2013-01-09 21:35:00,
2013-01-09 14:40:00,40.9,17.2,30.63,South,181,0.0,3.0,38,0.00,,,0.00,Wunderground v.1.15,2013-01-09 21:40:00,
2013-01-09 14:45:00,40.8,19.5,30.62,South,181,0.0,3.0,42,0.00,,,0.01,Wunderground v.1.15,2013-01-09 21:45:00,
2013-01-09 14:50:00,40.5,18.0,30.62,South,181,0.0,3.0,40,0.00,,,0.01,Wunderground v.1.15,2013-01-09 21:50:00,
2013-01-09 14:55:00,40.2,15.3,30.62,South,181,0.0,3.0,36,0.00,,,0.01,Wunderground v.1.15,2013-01-09 21:55:00,
2013-01-09 15:00:00,40.1,16.5,30.62,South,191,1.0,1.0,38,0.00,,,0.01,Wunderground v.1.15,2013-01-09 22:00:00,
2013-01-09 15:05:00,40.0,17.6,30.62,South,191,0.0,3.0,40,0.00,,,0.01,Wunderground v.1.15,2013-01-09 22:05:00,
2013-01-09 15:10:00,39.8,19.6,30.62,South,191,0.0,3.0,44,0.00,,,0.01,Wunderground v.1.15,2013-01-09 22:10:00,
2013-01-09 15:15:00,39.5,18.8,30.61,South,191,0.0,3.0,43,0.00,,,0.01,Wunderground v.1.15,2013-01-09 22:15:00,
2013-01-09 15:25:00,39.2,18.5,30.61,SSW,192,0.0,3.0,43,0.00,,,0.01,Wunderground v.1.15,2013-01-09 22:25:00,
2013-01-09 15:30:00,39.1,20.0,30.61,SSW,192,0.0,3.0,46,0.00,,,0.01,Wunderground v.1.15,2013-01-09 22:30:00,
2013-01-09 15:35:00,38.4,20.4,30.61,SSW,192,1.0,3.0,48,0.00,,,0.01,Wunderground v.1.15,2013-01-09 22:35:00,
2013-01-09 15:40:00,37.8,20.3,30.61,SSW,192,1.0,1.0,49,0.00,,,0.01,Wunderground v.1.15,2013-01-09 22:40:00,
2013-01-09 15:45:00,37.4,20.0,30.61,SSW,192,0.0,3.0,49,0.00,,,0.01,Wunderground v.1.15,2013-01-09 22:45:00,
2013-01-09 15:50:00,37.1,19.7,30.61,SSW,192,0.0,3.0,49,0.00,,,0.01,Wunderground v.1.15,2013-01-09 22:50:00,
2013-01-09 15:55:00,36.6,20.6,30.61,SSW,192,0.0,3.0,52,0.00,,,0.01,Wunderground v.1.15,2013-01-09 22:55:00,
2013-01-09 16:00:00,35.5,21.8,30.61,SSW,192,0.0,3.0,57,0.00,,,0.01,Wunderground v.1.15,2013-01-09 23:00:00,
2013-01-09 16:05:00,34.4,19.5,30.61,SSW,192,0.0,3.0,54,0.00,,,0.01,Wunderground v.1.15,2013-01-09 23:05:00,
2013-01-09 16:10:00,33.4,19.4,30.60,SSW,192,0.0,3.0,56,0.00,,,0.01,Wunderground v.1.15,2013-01-09 23:10:00,
2013-01-09 16:15:00,32.7,18.7,30.61,SSW,192,1.0,3.0,56,0.00,,,0.01,Wunderground v.1.15,2013-01-09 23:15:00,
2013-01-09 16:25:00,31.5,18.0,30.60,SSW,192,0.0,1.0,57,0.00,,,0.01,Wunderground v.1.15,2013-01-09 23:25:00,
2013-01-09 16:30:00,31.0,19.1,30.61,SSW,192,0.0,1.0,61,0.00,,,0.01,Wunderground v.1.15,2013-01-09 23:30:00,
2013-01-09 16:35:00,30.3,19.2,30.60,SSW,192,0.0,1.0,63,0.00,,,0.01,Wunderground v.1.15,2013-01-09 23:35:00,
2013-01-09 16:40:00,29.8,19.1,30.60,SSW,192,0.0,1.0,64,0.00,,,0.01,Wunderground v.1.15,2013-01-09 23:40:00,
2013-01-09 16:45:00,29.3,18.3,30.61,SSW,192,0.0,1.0,63,0.00,,,0.01,Wunderground v.1.15,2013-01-09 23:45:00,
2013-01-09 16:50:00,28.7,17.7,30.61,SSW,192,0.0,1.0,63,0.00,,,0.01,Wunderground v.1.15,2013-01-09 23:50:00,
2013-01-09 17:00:00,27.8,17.9,30.61,SSW,192,0.0,1.0,66,0.00,,,0.01,Wunderground v.1.15,2013-01-10 00:00:00,
2013-01-09 17:05:00,27.4,17.5,30.61,SSW,192,0.0,1.0,66,0.00,,,0.01,Wunderground v.1.15,2013-01-10 00:05:00,
2013-01-09 17:10:00,27.1,16.9,30.61,SSW,192,0.0,1.0,65,0.00,,,0.01,Wunderground v.1.15,2013-01-10 00:10:00,
2013-01-09 17:15:00,26.9,17.0,30.61,SSW,192,0.0,1.0,66,0.00,,,0.01,Wunderground v.1.15,2013-01-10 00:15:00,
2013-01-09 17:25:00,26.1,16.3,30.60,SSW,192,0.0,0.0,66,0.00,,,0.01,Wunderground v.1.15,2013-01-10 00:25:00,
2013-01-09 17:35:00,25.4,16.3,30.60,SSW,192,0.0,0.0,68,0.00,,,0.01,Wunderground v.1.15,2013-01-10 00:35:00,
2013-01-09 17:40:00,25.1,16.7,30.60,SSW,192,0.0,0.0,70,0.00,,,0.01,Wunderground v.1.15,2013-01-10 00:40:00,
2013-01-09 17:50:00,25.0,16.6,30.60,SSW,192,0.0,0.0,70,0.00,,,0.01,Wunderground v.1.15,2013-01-10 00:50:00,
2013-01-09 17:55:00,24.9,16.5,30.60,SSW,192,0.0,0.0,70,0.00,,,0.01,Wunderground v.1.15,2013-01-10 00:55:00,
2013-01-09 18:00:00,24.9,16.2,30.60,SSW,192,0.0,0.0,69,0.00,,,0.01,Wunderground v.1.15,2013-01-10 01:00:00,
2013-01-09 18:05:00,24.8,16.1,30.60,SSW,192,0.0,0.0,69,0.00,,,0.01,Wunderground v.1.15,2013-01-10 01:05:00,
2013-01-09 18:10:00,24.7,16.0,30.60,SSW,192,0.0,0.0,69,0.00,,,0.01,Wunderground v.1.15,2013-01-10 01:10:00,
2013-01-09 18:15:00,24.5,15.8,30.60,SSW,192,0.0,0.0,69,0.00,,,0.01,Wunderground v.1.15,2013-01-10 01:15:00,
2013-01-09 18:25:00,24.0,15.3,30.60,SSW,192,0.0,0.0,69,0.00,,,0.01,Wunderground v.1.15,2013-01-10 01:25:00,
2013-01-09 18:30:00,23.7,15.3,30.60,SSW,192,0.0,0.0,70,0.00,,,0.01,Wunderground v.1.15,2013-01-10 01:30:00,
2013-01-09 18:40:00,23.3,15.0,30.60,SSW,192,0.0,0.0,70,0.00,,,0.01,Wunderground v.1.15,2013-01-10 01:40:00,
2013-01-09 18:45:00,22.9,14.6,30.60,SSW,192,0.0,0.0,70,0.00,,,0.01,Wunderground v.1.15,2013-01-10 01:45:00,
2013-01-09 18:50:00,22.5,14.2,30.60,SSW,192,0.0,0.0,70,0.00,,,0.01,Wunderground v.1.15,2013-01-10 01:50:00,
2013-01-09 18:55:00,22.2,13.9,30.59,SSW,192,0.0,0.0,70,0.00,,,0.01,Wunderground v.1.15,2013-01-10 01:55:00,
2013-01-09 19:00:00,21.9,13.9,30.59,SSW,192,0.0,0.0,71,0.00,,,0.01,Wunderground v.1.15,2013-01-10 02:00:00,
2013-01-09 19:10:00,21.2,13.3,30.58,SSW,192,0.0,0.0,71,0.00,,,0.01,Wunderground v.1.15,2013-01-10 02:10:00,
2013-01-09 19:15:00,20.9,13.0,30.58,SSW,192,0.0,0.0,71,0.00,,,0.01,Wunderground v.1.15,2013-01-10 02:15:00,
2013-01-09 19:25:00,20.2,12.9,30.58,SSW,192,0.0,0.0,73,0.00,,,0.01,Wunderground v.1.15,2013-01-10 02:25:00,
2013-01-09 19:30:00,20.0,13.0,30.57,SSW,192,0.0,0.0,74,0.00,,,0.01,Wunderground v.1.15,2013-01-10 02:30:00,
2013-01-09 19:40:00,19.3,11.7,30.57,SSW,192,0.0,0.0,72,0.00,,,0.01,Wunderground v.1.15,2013-01-10 02:40:00,
2013-01-09 19:45:00,19.0,12.1,30.57,SSW,192,0.0,0.0,74,0.00,,,0.01,Wunderground v.1.15,2013-01-10 02:45:00,
2013-01-09 19:50:00,18.8,12.2,30.57,SSW,192,0.0,0.0,75,0.00,,,0.01,Wunderground v.1.15,2013-01-10 02:50:00,
2013-01-09 19:55:00,18.6,12.0,30.56,SSW,192,0.0,0.0,75,0.00,,,0.01,Wunderground v.1.15,2013-01-10 02:55:00,
2013-01-09 20:00:00,18.4,11.2,30.56,SSW,192,0.0,0.0,73,0.00,,,0.01,Wunderground v.1.15,2013-01-10 03:00:00,
2013-01-09 20:05:00,18.0,11.1,30.56,SSW,192,0.0,0.0,74,0.00,,,0.01,Wunderground v.1.15,2013-01-10 03:05:00,
2013-01-09 20:15:00,17.3,10.7,30.56,SE,143,0.0,1.0,75,0.00,,,0.01,Wunderground v.1.15,2013-01-10 03:15:00,
2013-01-09 20:25:00,16.8,10.2,30.56,SE,142,0.0,0.0,75,0.00,,,0.01,Wunderground v.1.15,2013-01-10 03:25:00,
2013-01-09 20:30:00,16.5,10.3,30.56,SE,142,0.0,0.0,76,0.00,,,0.01,Wunderground v.1.15,2013-01-10 03:30:00,
2013-01-09 20:35:00,16.3,10.1,30.56,SE,142,0.0,0.0,76,0.00,,,0.01,Wunderground v.1.15,2013-01-10 03:35:00,
2013-01-09 20:45:00,16.1,9.9,30.56,SE,142,0.0,0.0,76,0.00,,,0.01,Wunderground v.1.15,2013-01-10 03:45:00,
2013-01-09 20:50:00,15.7,9.2,30.56,SE,142,0.0,0.0,75,0.00,,,0.01,Wunderground v.1.15,2013-01-10 03:50:00,
2013-01-09 20:55:00,15.4,9.2,30.56,SE,142,0.0,0.0,76,0.00,,,0.01,Wunderground v.1.15,2013-01-10 03:55:00,
2013-01-09 21:00:00,15.2,9.3,30.56,SE,142,0.0,0.0,77,0.00,,,0.01,Wunderground v.1.15,2013-01-10 04:00:00,
2013-01-09 21:05:00,15.2,9.3,30.56,SE,142,0.0,0.0,77,0.00,,,0.01,Wunderground v.1.15,2013-01-10 04:05:00,
2013-01-09 21:15:00,14.4,8.2,30.55,SE,142,0.0,0.0,76,0.00,,,0.01,Wunderground v.1.15,2013-01-10 04:15:00,
2013-01-09 21:25:00,14.1,8.5,30.55,SE,142,0.0,0.0,78,0.00,,,0.01,Wunderground v.1.15,2013-01-10 04:25:00,
2013-01-09 21:30:00,14.0,8.4,30.55,SE,142,0.0,0.0,78,0.00,,,0.01,Wunderground v.1.15,2013-01-10 04:30:00,
2013-01-09 21:35:00,13.7,7.8,30.55,SE,142,0.0,0.0,77,0.00,,,0.01,Wunderground v.1.15,2013-01-10 04:35:00,
2013-01-09 21:45:00,13.5,7.6,30.55,SE,142,0.0,0.0,77,0.00,,,0.01,Wunderground v.1.15,2013-01-10 04:45:00,
2013-01-09 21:50:00,13.3,7.4,30.55,SE,142,0.0,0.0,77,0.00,,,0.01,Wunderground v.1.15,2013-01-10 04:50:00,
2013-01-09 21:55:00,13.1,7.2,30.55,SE,142,0.0,0.0,77,0.00,,,0.01,Wunderground v.1.15,2013-01-10 04:55:00,
2013-01-09 22:00:00,12.9,7.3,30.55,SE,142,0.0,0.0,78,0.00,,,0.01,Wunderground v.1.15,2013-01-10 05:00:00,
2013-01-09 22:05:00,12.8,7.2,30.55,SE,142,0.0,0.0,78,0.00,,,0.01,Wunderground v.1.15,2013-01-10 05:05:00,
2013-01-09 22:10:00,12.4,6.6,30.55,SE,142,0.0,0.0,77,0.00,,,0.01,Wunderground v.1.15,2013-01-10 05:10:00,
2013-01-09 22:15:00,12.2,6.9,30.55,SE,142,0.0,0.0,79,0.00,,,0.01,Wunderground v.1.15,2013-01-10 05:15:00,
2013-01-09 22:20:00,11.8,6.0,30.55,SE,142,0.0,0.0,77,0.00,,,0.01,Wunderground v.1.15,2013-01-10 05:20:00,
2013-01-09 22:25:00,11.4,5.9,30.55,SE,142,0.0,0.0,78,0.00,,,0.01,Wunderground v.1.15,2013-01-10 05:25:00,
2013-01-09 22:30:00,11.3,6.1,30.55,SE,142,0.0,0.0,79,0.00,,,0.01,Wunderground v.1.15,2013-01-10 05:30:00,
2013-01-09 22:35:00,11.2,6.0,30.54,SE,142,0.0,0.0,79,0.00,,,0.01,Wunderground v.1.15,2013-01-10 05:35:00,
2013-01-09 22:40:00,11.2,6.2,30.54,SE,142,0.0,0.0,80,0.00,,,0.01,Wunderground v.1.15,2013-01-10 05:40:00,
2013-01-09 22:45:00,11.0,5.8,30.54,SE,142,0.0,0.0,79,0.00,,,0.01,Wunderground v.1.15,2013-01-10 05:45:00,
2013-01-09 22:55:00,10.5,5.3,30.54,SE,142,0.0,0.0,79,0.00,,,0.01,Wunderground v.1.15,2013-01-10 05:55:00,
2013-01-09 23:00:00,10.4,5.2,30.54,SE,142,0.0,0.0,79,0.00,,,0.01,Wunderground v.1.15,2013-01-10 06:00:00,
2013-01-09 23:05:00,10.4,5.5,30.54,SE,142,0.0,0.0,80,0.00,,,0.01,Wunderground v.1.15,2013-01-10 06:05:00,
2013-01-09 23:10:00,10.5,5.5,30.54,SE,142,0.0,0.0,80,0.00,,,0.01,Wunderground v.1.15,2013-01-10 06:10:00,
2013-01-09 23:15:00,10.5,5.8,30.53,SE,142,0.0,0.0,81,0.00,,,0.01,Wunderground v.1.15,2013-01-10 06:15:00,
2013-01-09 23:25:00,9.9,4.4,30.53,SE,142,0.0,0.0,78,0.00,,,0.01,Wunderground v.1.15,2013-01-10 06:25:00,
2013-01-09 23:30:00,9.6,4.4,30.53,SE,142,0.0,0.0,79,0.00,,,0.01,Wunderground v.1.15,2013-01-10 06:30:00,
2013-01-09 23:35:00,9.3,4.1,30.53,SE,142,0.0,0.0,79,0.00,,,0.01,Wunderground v.1.15,2013-01-10 06:35:00,
2013-01-09 23:40:00,9.2,4.3,30.52,SE,142,0.0,0.0,80,0.00,,,0.01,Wunderground v.1.15,2013-01-10 06:40:00,
2013-01-09 23:45:00,9.2,4.8,30.52,SE,142,0.0,0.0,82,0.00,,,0.01,Wunderground v.1.15,2013-01-10 06:45:00,
2013-01-09 23:55:00,9.3,4.6,30.52,SE,142,0.0,0.0,81,0.00,,,0.01,Wunderground v.1.15,2013-01-10 06:55:00,